owner,sensor,date,latitude,longitude,vertical_datum,sea_water_practical_salinity,qcFlag 
DISL,ioos:station:DISL:CATA:1,2015-07-01T00:00:00Z,30.3085,-88.1395,1.78,12.55,1111122 
DISL,ioos:station:DISL:CATA:1,2015-07-01T00:30:00Z,30.3085,-88.1395,1.813,12.48,1111122 
DISL,ioos:station:DISL:CATA:1,2015-07-01T01:00:00Z,30.3085,-88.1395,1.842,12.35,1111122 
DISL,ioos:station:DISL:CATA:1,2015-07-01T01:30:00Z,30.3085,-88.1395,1.865,12.26,1111122 
DISL,ioos:station:DISL:CATA:1,2015-07-01T02:00:00Z,30.3085,-88.1395,1.882,12.23,1111122 
DISL,ioos:station:DISL:CATA:1,2015-07-01T02:30:00Z,30.3085,-88.1395,1.888,12.16,1111122 
DISL,ioos:station:DISL:CATA:1,2015-07-01T03:00:00Z,30.3085,-88.1395,1.879,12.14,1111122 
DISL,ioos:station:DISL:CATA:1,2015-07-01T03:30:00Z,30.3085,-88.1395,1.888,12.2,1111122 
DISL,ioos:station:DISL:CATA:1,2015-07-01T04:00:00Z,30.3085,-88.1395,1.887,12.21,1111122 
DISL,ioos:station:DISL:CATA:1,2015-07-01T04:30:00Z,30.3085,-88.1395,1.915,12.18,1111122 
DISL,ioos:station:DISL:CATA:1,2015-07-01T05:00:00Z,30.3085,-88.1395,1.937,12.3,1111122 
DISL,ioos:station:DISL:CATA:1,2015-07-01T05:30:00Z,30.3085,-88.1395,1.913,12.51,1111122 
DISL,ioos:station:DISL:CATA:1,2015-07-01T06:00:00Z,30.3085,-88.1395,1.935,12.7,1111122 
DISL,ioos:station:DISL:CATA:1,2015-07-01T06:30:00Z,30.3085,-88.1395,2.022,12.71,1111122 
DISL,ioos:station:DISL:CATA:1,2015-07-01T07:00:00Z,30.3085,-88.1395,2.041,12.73,1111122 
DISL,ioos:station:DISL:CATA:1,2015-07-01T07:30:00Z,30.3085,-88.1395,2.068,12.72,1111122 
DISL,ioos:station:DISL:CATA:1,2015-07-01T08:00:00Z,30.3085,-88.1395,2.07,12.37,1111122 
DISL,ioos:station:DISL:CATA:1,2015-07-01T08:30:00Z,30.3085,-88.1395,2.094,11.83,1111122 
DISL,ioos:station:DISL:CATA:1,2015-07-01T09:00:00Z,30.3085,-88.1395,2.096,11.5,1111122 
DISL,ioos:station:DISL:CATA:1,2015-07-01T09:30:00Z,30.3085,-88.1395,2.108,10.65,1111122 
DISL,ioos:station:DISL:CATA:1,2015-07-01T10:00:00Z,30.3085,-88.1395,2.097,11.1,1111122 
DISL,ioos:station:DISL:CATA:1,2015-07-01T10:30:00Z,30.3085,-88.1395,2.122,11.39,1111122 
DISL,ioos:station:DISL:CATA:1,2015-07-01T11:00:00Z,30.3085,-88.1395,2.181,11.51,1111122 
DISL,ioos:station:DISL:CATA:1,2015-07-01T11:30:00Z,30.3085,-88.1395,2.253,11.42,1111122 
DISL,ioos:station:DISL:CATA:1,2015-07-01T12:00:00Z,30.3085,-88.1395,2.271,11.47,1111122 
DISL,ioos:station:DISL:CATA:1,2015-07-01T12:30:00Z,30.3085,-88.1395,2.308,11.09,1111122 
DISL,ioos:station:DISL:CATA:1,2015-07-01T13:00:00Z,30.3085,-88.1395,2.323,11.11,1111122 
DISL,ioos:station:DISL:CATA:1,2015-07-01T13:30:00Z,30.3085,-88.1395,2.35,11.25,1111122 
DISL,ioos:station:DISL:CATA:1,2015-07-01T14:00:00Z,30.3085,-88.1395,2.367,11.43,1111122 
DISL,ioos:station:DISL:CATA:1,2015-07-01T14:30:00Z,30.3085,-88.1395,2.385,11.77,1111122 
DISL,ioos:station:DISL:CATA:1,2015-07-01T15:00:00Z,30.3085,-88.1395,2.39,11.91,1111122 
DISL,ioos:station:DISL:CATA:1,2015-07-01T15:30:00Z,30.3085,-88.1395,2.388,12.0,1111122 
DISL,ioos:station:DISL:CATA:1,2015-07-01T16:00:00Z,30.3085,-88.1395,2.383,11.98,1111122 
DISL,ioos:station:DISL:CATA:1,2015-07-01T16:30:00Z,30.3085,-88.1395,2.364,11.97,1111122 
DISL,ioos:station:DISL:CATA:1,2015-07-01T17:00:00Z,30.3085,-88.1395,2.353,11.97,1111122 
DISL,ioos:station:DISL:CATA:1,2015-07-01T17:30:00Z,30.3085,-88.1395,2.338,11.96,1111122 
DISL,ioos:station:DISL:CATA:1,2015-07-01T18:00:00Z,30.3085,-88.1395,2.305,12.01,1111122 
DISL,ioos:station:DISL:CATA:1,2015-07-01T18:30:00Z,30.3085,-88.1395,2.284,12.18,1111122 
DISL,ioos:station:DISL:CATA:1,2015-07-01T19:00:00Z,30.3085,-88.1395,2.25,12.12,1111122 
DISL,ioos:station:DISL:CATA:1,2015-07-01T19:30:00Z,30.3085,-88.1395,2.206,11.84,1111122 
DISL,ioos:station:DISL:CATA:1,2015-07-01T20:00:00Z,30.3085,-88.1395,2.168,12.07,1111122 
DISL,ioos:station:DISL:CATA:1,2015-07-01T20:30:00Z,30.3085,-88.1395,2.124,12.44,1111122 
DISL,ioos:station:DISL:CATA:1,2015-07-01T21:00:00Z,30.3085,-88.1395,2.099,18.68,1111122 
DISL,ioos:station:DISL:CATA:1,2015-07-01T21:30:00Z,30.3085,-88.1395,2.062,18.63,1111122 
DISL,ioos:station:DISL:CATA:1,2015-07-01T22:00:00Z,30.3085,-88.1395,2.044,18.84,1111122 
DISL,ioos:station:DISL:CATA:1,2015-07-01T22:30:00Z,30.3085,-88.1395,2.008,18.27,1111122 
DISL,ioos:station:DISL:CATA:1,2015-07-01T23:00:00Z,30.3085,-88.1395,1.999,17.72,1111122 
DISL,ioos:station:DISL:CATA:1,2015-07-01T23:30:00Z,30.3085,-88.1395,1.954,17.28,1111122 
DISL,ioos:station:DISL:CATA:1,2015-07-02T00:00:00Z,30.3085,-88.1395,1.982,17.24,1111122 
DISL,ioos:station:DISL:CATA:1,2015-07-02T00:30:00Z,30.3085,-88.1395,1.921,17.73,1111122 
DISL,ioos:station:DISL:CATA:1,2015-07-02T01:00:00Z,30.3085,-88.1395,1.929,17.72,1111122 
DISL,ioos:station:DISL:CATA:1,2015-07-02T01:30:00Z,30.3085,-88.1395,1.907,20.77,1111122 
DISL,ioos:station:DISL:CATA:1,2015-07-02T02:00:00Z,30.3085,-88.1395,1.852,20.13,1111122 
DISL,ioos:station:DISL:CATA:1,2015-07-02T02:30:00Z,30.3085,-88.1395,1.815,20.32,1111122 
DISL,ioos:station:DISL:CATA:1,2015-07-02T03:00:00Z,30.3085,-88.1395,1.826,20.35,1111122 
DISL,ioos:station:DISL:CATA:1,2015-07-02T03:30:00Z,30.3085,-88.1395,1.84,19.61,1111122 
DISL,ioos:station:DISL:CATA:1,2015-07-02T04:00:00Z,30.3085,-88.1395,1.845,19.5,1111122 
DISL,ioos:station:DISL:CATA:1,2015-07-02T04:30:00Z,30.3085,-88.1395,1.888,19.43,1111122 
DISL,ioos:station:DISL:CATA:1,2015-07-02T05:00:00Z,30.3085,-88.1395,1.925,19.42,1111122 
DISL,ioos:station:DISL:CATA:1,2015-07-02T05:30:00Z,30.3085,-88.1395,1.927,19.42,1111122 
DISL,ioos:station:DISL:CATA:1,2015-07-02T06:00:00Z,30.3085,-88.1395,1.935,19.57,1111122 
DISL,ioos:station:DISL:CATA:1,2015-07-02T06:30:00Z,30.3085,-88.1395,1.98,19.66,1111122 
DISL,ioos:station:DISL:CATA:1,2015-07-02T07:00:00Z,30.3085,-88.1395,2.007,20.1,1111122 
DISL,ioos:station:DISL:CATA:1,2015-07-02T07:30:00Z,30.3085,-88.1395,2.031,18.09,1111122 
DISL,ioos:station:DISL:CATA:1,2015-07-02T08:00:00Z,30.3085,-88.1395,2.06,17.36,1111122 
DISL,ioos:station:DISL:CATA:1,2015-07-02T08:30:00Z,30.3085,-88.1395,2.102,17.09,1111122 
DISL,ioos:station:DISL:CATA:1,2015-07-02T09:00:00Z,30.3085,-88.1395,2.12,16.99,1111122 
DISL,ioos:station:DISL:CATA:1,2015-07-02T09:30:00Z,30.3085,-88.1395,2.144,17.21,1111122 
DISL,ioos:station:DISL:CATA:1,2015-07-02T10:00:00Z,30.3085,-88.1395,2.181,16.82,1111122 
DISL,ioos:station:DISL:CATA:1,2015-07-02T10:30:00Z,30.3085,-88.1395,2.222,17.4,1111122 
DISL,ioos:station:DISL:CATA:1,2015-07-02T11:00:00Z,30.3085,-88.1395,2.248,17.02,1111122 
DISL,ioos:station:DISL:CATA:1,2015-07-02T11:30:00Z,30.3085,-88.1395,2.28,16.9,1111122 
DISL,ioos:station:DISL:CATA:1,2015-07-02T12:00:00Z,30.3085,-88.1395,2.331,17.07,1111122 
DISL,ioos:station:DISL:CATA:1,2015-07-02T12:30:00Z,30.3085,-88.1395,2.333,17.45,1111122 
DISL,ioos:station:DISL:CATA:1,2015-07-02T13:00:00Z,30.3085,-88.1395,2.346,17.45,1111122 
DISL,ioos:station:DISL:CATA:1,2015-07-02T13:30:00Z,30.3085,-88.1395,2.391,17.24,1111122 
DISL,ioos:station:DISL:CATA:1,2015-07-02T14:00:00Z,30.3085,-88.1395,2.454,17.46,1111122 
DISL,ioos:station:DISL:CATA:1,2015-07-02T14:30:00Z,30.3085,-88.1395,2.457,17.49,1111122 
DISL,ioos:station:DISL:CATA:1,2015-07-02T15:00:00Z,30.3085,-88.1395,2.482,17.26,1111122 
DISL,ioos:station:DISL:CATA:1,2015-07-02T15:30:00Z,30.3085,-88.1395,2.505,17.28,1111122 
DISL,ioos:station:DISL:CATA:1,2015-07-02T16:00:00Z,30.3085,-88.1395,2.509,17.36,1111122 
DISL,ioos:station:DISL:CATA:1,2015-07-02T16:30:00Z,30.3085,-88.1395,2.483,17.28,1111122 
DISL,ioos:station:DISL:CATA:1,2015-07-02T17:00:00Z,30.3085,-88.1395,2.465,17.22,1111122 
DISL,ioos:station:DISL:CATA:1,2015-07-02T17:30:00Z,30.3085,-88.1395,2.471,17.27,1111122 
DISL,ioos:station:DISL:CATA:1,2015-07-02T18:00:00Z,30.3085,-88.1395,2.428,17.28,1111122 
DISL,ioos:station:DISL:CATA:1,2015-07-02T18:30:00Z,30.3085,-88.1395,2.385,18.25,1111122 
DISL,ioos:station:DISL:CATA:1,2015-07-02T19:00:00Z,30.3085,-88.1395,2.364,18.23,1111122 
DISL,ioos:station:DISL:CATA:1,2015-07-02T19:30:00Z,30.3085,-88.1395,2.346,17.91,1111122 
DISL,ioos:station:DISL:CATA:1,2015-07-02T20:00:00Z,30.3085,-88.1395,2.307,18.32,1111122 
DISL,ioos:station:DISL:CATA:1,2015-07-02T20:30:00Z,30.3085,-88.1395,2.259,19.36,1111122 
DISL,ioos:station:DISL:CATA:1,2015-07-02T21:00:00Z,30.3085,-88.1395,2.215,19.47,1111122 
DISL,ioos:station:DISL:CATA:1,2015-07-02T21:30:00Z,30.3085,-88.1395,2.176,19.14,1111122 
DISL,ioos:station:DISL:CATA:1,2015-07-02T22:00:00Z,30.3085,-88.1395,2.127,19.48,1111122 
DISL,ioos:station:DISL:CATA:1,2015-07-02T22:30:00Z,30.3085,-88.1395,2.081,21.84,1111122 
DISL,ioos:station:DISL:CATA:1,2015-07-02T23:00:00Z,30.3085,-88.1395,2.043,23.13,1111122 
DISL,ioos:station:DISL:CATA:1,2015-07-02T23:30:00Z,30.3085,-88.1395,2.007,23.6,1111122 
DISL,ioos:station:DISL:CATA:1,2015-07-03T00:00:00Z,30.3085,-88.1395,1.984,23.81,1111122 
DISL,ioos:station:DISL:CATA:1,2015-07-03T00:30:00Z,30.3085,-88.1395,1.944,23.91,1111122 
DISL,ioos:station:DISL:CATA:1,2015-07-03T01:00:00Z,30.3085,-88.1395,1.915,23.51,1111122 
DISL,ioos:station:DISL:CATA:1,2015-07-03T01:30:00Z,30.3085,-88.1395,1.899,23.16,1111122 
DISL,ioos:station:DISL:CATA:1,2015-07-03T02:00:00Z,30.3085,-88.1395,1.882,22.74,1111122 
DISL,ioos:station:DISL:CATA:1,2015-07-03T02:30:00Z,30.3085,-88.1395,1.863,22.56,1111122 
DISL,ioos:station:DISL:CATA:1,2015-07-03T03:00:00Z,30.3085,-88.1395,1.863,22.01,1111122 
DISL,ioos:station:DISL:CATA:1,2015-07-03T03:30:00Z,30.3085,-88.1395,1.884,21.77,1111122 
DISL,ioos:station:DISL:CATA:1,2015-07-03T04:00:00Z,30.3085,-88.1395,1.898,20.97,1111122 
DISL,ioos:station:DISL:CATA:1,2015-07-03T04:30:00Z,30.3085,-88.1395,1.916,20.51,1111122 
DISL,ioos:station:DISL:CATA:1,2015-07-03T05:00:00Z,30.3085,-88.1395,1.934,20.29,1111122 
DISL,ioos:station:DISL:CATA:1,2015-07-03T05:30:00Z,30.3085,-88.1395,1.935,21.55,1111122 
DISL,ioos:station:DISL:CATA:1,2015-07-03T06:00:00Z,30.3085,-88.1395,1.963,21.56,1111122 
DISL,ioos:station:DISL:CATA:1,2015-07-03T06:30:00Z,30.3085,-88.1395,1.972,22.08,1111122 
DISL,ioos:station:DISL:CATA:1,2015-07-03T07:00:00Z,30.3085,-88.1395,1.999,22.46,1111122 
DISL,ioos:station:DISL:CATA:1,2015-07-03T07:30:00Z,30.3085,-88.1395,2.031,20.72,1111122 
DISL,ioos:station:DISL:CATA:1,2015-07-03T08:00:00Z,30.3085,-88.1395,2.051,18.83,1111122 
DISL,ioos:station:DISL:CATA:1,2015-07-03T08:30:00Z,30.3085,-88.1395,2.082,17.35,1111122 
DISL,ioos:station:DISL:CATA:1,2015-07-03T09:00:00Z,30.3085,-88.1395,2.104,16.87,1111122 
DISL,ioos:station:DISL:CATA:1,2015-07-03T09:30:00Z,30.3085,-88.1395,2.119,16.71,1111122 
DISL,ioos:station:DISL:CATA:1,2015-07-03T10:00:00Z,30.3085,-88.1395,2.151,16.56,1111122 
DISL,ioos:station:DISL:CATA:1,2015-07-03T10:30:00Z,30.3085,-88.1395,2.168,16.52,1111122 
DISL,ioos:station:DISL:CATA:1,2015-07-03T11:00:00Z,30.3085,-88.1395,2.199,16.48,1111122 
DISL,ioos:station:DISL:CATA:1,2015-07-03T11:30:00Z,30.3085,-88.1395,2.228,16.72,1111122 
DISL,ioos:station:DISL:CATA:1,2015-07-03T12:00:00Z,30.3085,-88.1395,2.254,17.26,1111122 
DISL,ioos:station:DISL:CATA:1,2015-07-03T12:30:00Z,30.3085,-88.1395,2.286,17.13,1111122 
DISL,ioos:station:DISL:CATA:1,2015-07-03T13:00:00Z,30.3085,-88.1395,2.331,17.33,1111122 
DISL,ioos:station:DISL:CATA:1,2015-07-03T13:30:00Z,30.3085,-88.1395,2.367,17.42,1111122 
DISL,ioos:station:DISL:CATA:1,2015-07-03T14:00:00Z,30.3085,-88.1395,2.399,17.7,1111122 
DISL,ioos:station:DISL:CATA:1,2015-07-03T14:30:00Z,30.3085,-88.1395,2.428,17.98,1111122 
DISL,ioos:station:DISL:CATA:1,2015-07-03T15:00:00Z,30.3085,-88.1395,2.454,18.17,1111122 
DISL,ioos:station:DISL:CATA:1,2015-07-03T15:30:00Z,30.3085,-88.1395,2.467,18.17,1111122 
DISL,ioos:station:DISL:CATA:1,2015-07-03T16:00:00Z,30.3085,-88.1395,2.468,18.24,1111122 
DISL,ioos:station:DISL:CATA:1,2015-07-03T16:30:00Z,30.3085,-88.1395,2.473,18.41,1111122 
DISL,ioos:station:DISL:CATA:1,2015-07-03T17:00:00Z,30.3085,-88.1395,2.47,18.54,1111122 
DISL,ioos:station:DISL:CATA:1,2015-07-03T17:30:00Z,30.3085,-88.1395,2.462,18.47,1111122 
DISL,ioos:station:DISL:CATA:1,2015-07-03T18:00:00Z,30.3085,-88.1395,2.438,18.3,1111122 
DISL,ioos:station:DISL:CATA:1,2015-07-03T18:30:00Z,30.3085,-88.1395,2.432,18.23,1111122 
DISL,ioos:station:DISL:CATA:1,2015-07-03T19:00:00Z,30.3085,-88.1395,2.411,18.89,1111122 
DISL,ioos:station:DISL:CATA:1,2015-07-03T19:30:00Z,30.3085,-88.1395,2.391,20.65,1111122 
DISL,ioos:station:DISL:CATA:1,2015-07-03T20:00:00Z,30.3085,-88.1395,2.363,20.81,1111122 
DISL,ioos:station:DISL:CATA:1,2015-07-03T20:30:00Z,30.3085,-88.1395,2.332,21.59,1111122 
DISL,ioos:station:DISL:CATA:1,2015-07-03T21:00:00Z,30.3085,-88.1395,2.291,21.69,1111122 
DISL,ioos:station:DISL:CATA:1,2015-07-03T21:30:00Z,30.3085,-88.1395,2.248,21.51,1111122 
DISL,ioos:station:DISL:CATA:1,2015-07-03T22:00:00Z,30.3085,-88.1395,2.203,21.35,1111122 
DISL,ioos:station:DISL:CATA:1,2015-07-03T22:30:00Z,30.3085,-88.1395,2.161,21.91,1111122 
DISL,ioos:station:DISL:CATA:1,2015-07-03T23:00:00Z,30.3085,-88.1395,2.123,23.04,1111122 
DISL,ioos:station:DISL:CATA:1,2015-07-03T23:30:00Z,30.3085,-88.1395,2.096,23.63,1111122 
DISL,ioos:station:DISL:CATA:1,2015-07-04T00:00:00Z,30.3085,-88.1395,2.056,23.67,1111122 
DISL,ioos:station:DISL:CATA:1,2015-07-04T00:30:00Z,30.3085,-88.1395,2.018,23.48,1111122 
DISL,ioos:station:DISL:CATA:1,2015-07-04T01:00:00Z,30.3085,-88.1395,2.014,17.43,1111122 
DISL,ioos:station:DISL:CATA:1,2015-07-04T01:30:00Z,30.3085,-88.1395,1.99,23.16,1111122 
DISL,ioos:station:DISL:CATA:1,2015-07-04T02:00:00Z,30.3085,-88.1395,1.975,22.89,1111122 
DISL,ioos:station:DISL:CATA:1,2015-07-04T02:30:00Z,30.3085,-88.1395,1.972,22.67,1111122 
DISL,ioos:station:DISL:CATA:1,2015-07-04T03:00:00Z,30.3085,-88.1395,1.973,22.13,1111122 
DISL,ioos:station:DISL:CATA:1,2015-07-04T03:30:00Z,30.3085,-88.1395,1.965,21.41,1111122 
DISL,ioos:station:DISL:CATA:1,2015-07-04T04:00:00Z,30.3085,-88.1395,1.972,21.2,1111122 
DISL,ioos:station:DISL:CATA:1,2015-07-04T04:30:00Z,30.3085,-88.1395,1.979,22.08,1111122 
DISL,ioos:station:DISL:CATA:1,2015-07-04T05:00:00Z,30.3085,-88.1395,1.994,21.49,1111122 
DISL,ioos:station:DISL:CATA:1,2015-07-04T05:30:00Z,30.3085,-88.1395,1.999,20.92,1111122 
DISL,ioos:station:DISL:CATA:1,2015-07-04T06:00:00Z,30.3085,-88.1395,2.001,21.41,1111122 
DISL,ioos:station:DISL:CATA:1,2015-07-04T06:30:00Z,30.3085,-88.1395,2.003,21.88,1111122 
DISL,ioos:station:DISL:CATA:1,2015-07-04T07:00:00Z,30.3085,-88.1395,2.025,22.21,1111122 
DISL,ioos:station:DISL:CATA:1,2015-07-04T07:30:00Z,30.3085,-88.1395,2.04,22.66,1111122 
DISL,ioos:station:DISL:CATA:1,2015-07-04T08:00:00Z,30.3085,-88.1395,2.068,21.1,1111122 
DISL,ioos:station:DISL:CATA:1,2015-07-04T08:30:00Z,30.3085,-88.1395,2.089,20.16,1111122 
DISL,ioos:station:DISL:CATA:1,2015-07-04T09:00:00Z,30.3085,-88.1395,2.112,19.25,1111122 
DISL,ioos:station:DISL:CATA:1,2015-07-04T09:30:00Z,30.3085,-88.1395,2.134,18.6,1111122 
DISL,ioos:station:DISL:CATA:1,2015-07-04T10:00:00Z,30.3085,-88.1395,2.156,18.4,1111122 
DISL,ioos:station:DISL:CATA:1,2015-07-04T10:30:00Z,30.3085,-88.1395,2.187,18.41,1111122 
DISL,ioos:station:DISL:CATA:1,2015-07-04T11:00:00Z,30.3085,-88.1395,2.2,18.57,1111122 
DISL,ioos:station:DISL:CATA:1,2015-07-04T11:30:00Z,30.3085,-88.1395,2.221,18.78,1111122 
DISL,ioos:station:DISL:CATA:1,2015-07-04T12:00:00Z,30.3085,-88.1395,2.234,18.62,1111122 
DISL,ioos:station:DISL:CATA:1,2015-07-04T12:30:00Z,30.3085,-88.1395,2.26,18.53,1111122 
DISL,ioos:station:DISL:CATA:1,2015-07-04T13:00:00Z,30.3085,-88.1395,2.28,18.3,1111122 
DISL,ioos:station:DISL:CATA:1,2015-07-04T13:30:00Z,30.3085,-88.1395,2.303,18.25,1111122 
DISL,ioos:station:DISL:CATA:1,2015-07-04T14:00:00Z,30.3085,-88.1395,2.322,18.27,1111122 
DISL,ioos:station:DISL:CATA:1,2015-07-04T14:30:00Z,30.3085,-88.1395,2.358,18.22,1111122 
DISL,ioos:station:DISL:CATA:1,2015-07-04T15:00:00Z,30.3085,-88.1395,2.38,18.41,1111122 
DISL,ioos:station:DISL:CATA:1,2015-07-04T15:30:00Z,30.3085,-88.1395,2.4,18.66,1111122 
DISL,ioos:station:DISL:CATA:1,2015-07-04T16:00:00Z,30.3085,-88.1395,2.417,18.83,1111122 
DISL,ioos:station:DISL:CATA:1,2015-07-04T16:30:00Z,30.3085,-88.1395,2.425,19.06,1111122 
DISL,ioos:station:DISL:CATA:1,2015-07-04T17:00:00Z,30.3085,-88.1395,2.421,19.36,1111122 
DISL,ioos:station:DISL:CATA:1,2015-07-04T17:30:00Z,30.3085,-88.1395,2.427,19.43,1111122 
DISL,ioos:station:DISL:CATA:1,2015-07-04T18:00:00Z,30.3085,-88.1395,2.424,19.34,1111122 
DISL,ioos:station:DISL:CATA:1,2015-07-04T18:30:00Z,30.3085,-88.1395,2.404,19.06,1111122 
DISL,ioos:station:DISL:CATA:1,2015-07-04T19:00:00Z,30.3085,-88.1395,2.392,18.87,1111122 
DISL,ioos:station:DISL:CATA:1,2015-07-04T19:30:00Z,30.3085,-88.1395,2.374,18.76,1111122 
DISL,ioos:station:DISL:CATA:1,2015-07-04T20:00:00Z,30.3085,-88.1395,2.368,18.68,1111122 
DISL,ioos:station:DISL:CATA:1,2015-07-04T20:30:00Z,30.3085,-88.1395,2.351,19.89,1111122 
DISL,ioos:station:DISL:CATA:1,2015-07-04T21:00:00Z,30.3085,-88.1395,2.325,18.95,1111122 
DISL,ioos:station:DISL:CATA:1,2015-07-04T21:30:00Z,30.3085,-88.1395,2.289,21.03,1111122 
DISL,ioos:station:DISL:CATA:1,2015-07-04T22:00:00Z,30.3085,-88.1395,2.264,20.51,1111122 
DISL,ioos:station:DISL:CATA:1,2015-07-04T22:30:00Z,30.3085,-88.1395,2.222,21.01,1111122 
DISL,ioos:station:DISL:CATA:1,2015-07-04T23:00:00Z,30.3085,-88.1395,2.186,21.41,1111122 
DISL,ioos:station:DISL:CATA:1,2015-07-04T23:30:00Z,30.3085,-88.1395,2.149,21.56,1111122 
DISL,ioos:station:DISL:CATA:1,2015-07-05T00:00:00Z,30.3085,-88.1395,2.097,21.72,1111122 
DISL,ioos:station:DISL:CATA:1,2015-07-05T00:30:00Z,30.3085,-88.1395,2.163,22.49,1111122 
DISL,ioos:station:DISL:CATA:1,2015-07-05T01:00:00Z,30.3085,-88.1395,2.039,22.73,1111122 
DISL,ioos:station:DISL:CATA:1,2015-07-05T01:30:00Z,30.3085,-88.1395,1.945,23.39,1111122 
DISL,ioos:station:DISL:CATA:1,2015-07-05T02:00:00Z,30.3085,-88.1395,1.929,22.93,1111122 
DISL,ioos:station:DISL:CATA:1,2015-07-05T02:30:00Z,30.3085,-88.1395,1.967,22.52,1111122 
DISL,ioos:station:DISL:CATA:1,2015-07-05T03:00:00Z,30.3085,-88.1395,1.908,21.82,1111122 
DISL,ioos:station:DISL:CATA:1,2015-07-05T03:30:00Z,30.3085,-88.1395,1.88,21.27,1111122 
DISL,ioos:station:DISL:CATA:1,2015-07-05T04:00:00Z,30.3085,-88.1395,1.879,20.22,1111122 
DISL,ioos:station:DISL:CATA:1,2015-07-05T04:30:00Z,30.3085,-88.1395,1.909,20.1,1111122 
DISL,ioos:station:DISL:CATA:1,2015-07-05T05:00:00Z,30.3085,-88.1395,1.945,19.97,1111122 
DISL,ioos:station:DISL:CATA:1,2015-07-05T05:30:00Z,30.3085,-88.1395,1.984,19.9,1111122 
DISL,ioos:station:DISL:CATA:1,2015-07-05T06:00:00Z,30.3085,-88.1395,2.012,19.79,1111122 
DISL,ioos:station:DISL:CATA:1,2015-07-05T06:30:00Z,30.3085,-88.1395,2.01,19.83,1111122 
DISL,ioos:station:DISL:CATA:1,2015-07-05T07:00:00Z,30.3085,-88.1395,2.007,19.94,1111122 
DISL,ioos:station:DISL:CATA:1,2015-07-05T07:30:00Z,30.3085,-88.1395,2.013,20.03,1111122 
DISL,ioos:station:DISL:CATA:1,2015-07-05T08:00:00Z,30.3085,-88.1395,2.041,20.0,1111122 
DISL,ioos:station:DISL:CATA:1,2015-07-05T08:30:00Z,30.3085,-88.1395,2.062,19.99,1111122 
DISL,ioos:station:DISL:CATA:1,2015-07-05T09:00:00Z,30.3085,-88.1395,2.097,20.33,1111122 
DISL,ioos:station:DISL:CATA:1,2015-07-05T09:30:00Z,30.3085,-88.1395,2.113,20.95,1111122 
DISL,ioos:station:DISL:CATA:1,2015-07-05T10:00:00Z,30.3085,-88.1395,2.132,19.81,1111122 
DISL,ioos:station:DISL:CATA:1,2015-07-05T10:30:00Z,30.3085,-88.1395,2.161,19.32,1111122 
DISL,ioos:station:DISL:CATA:1,2015-07-05T11:00:00Z,30.3085,-88.1395,2.195,19.27,1111122 
DISL,ioos:station:DISL:CATA:1,2015-07-05T11:30:00Z,30.3085,-88.1395,2.165,19.23,1111122 
DISL,ioos:station:DISL:CATA:1,2015-07-05T12:00:00Z,30.3085,-88.1395,2.156,19.24,1111122 
DISL,ioos:station:DISL:CATA:1,2015-07-05T12:30:00Z,30.3085,-88.1395,2.243,19.21,1111122 
DISL,ioos:station:DISL:CATA:1,2015-07-05T13:00:00Z,30.3085,-88.1395,2.257,19.44,1111122 
DISL,ioos:station:DISL:CATA:1,2015-07-05T13:30:00Z,30.3085,-88.1395,2.286,20.1,1111122 
DISL,ioos:station:DISL:CATA:1,2015-07-05T14:00:00Z,30.3085,-88.1395,2.312,19.96,1111122 
DISL,ioos:station:DISL:CATA:1,2015-07-05T14:30:00Z,30.3085,-88.1395,2.31,19.81,1111122 
DISL,ioos:station:DISL:CATA:1,2015-07-05T15:00:00Z,30.3085,-88.1395,2.343,20.18,1111122 
DISL,ioos:station:DISL:CATA:1,2015-07-05T15:30:00Z,30.3085,-88.1395,2.363,20.04,1111122 
DISL,ioos:station:DISL:CATA:1,2015-07-05T16:00:00Z,30.3085,-88.1395,2.377,20.08,1111122 
DISL,ioos:station:DISL:CATA:1,2015-07-05T16:30:00Z,30.3085,-88.1395,2.387,19.89,1111122 
DISL,ioos:station:DISL:CATA:1,2015-07-05T17:00:00Z,30.3085,-88.1395,2.443,20.06,1111122 
DISL,ioos:station:DISL:CATA:1,2015-07-05T17:30:00Z,30.3085,-88.1395,2.459,19.86,1111122 
DISL,ioos:station:DISL:CATA:1,2015-07-05T18:00:00Z,30.3085,-88.1395,2.429,19.68,1111122 
DISL,ioos:station:DISL:CATA:1,2015-07-05T18:30:00Z,30.3085,-88.1395,2.401,19.69,1111122 
DISL,ioos:station:DISL:CATA:1,2015-07-05T19:00:00Z,30.3085,-88.1395,2.387,19.56,1111122 
DISL,ioos:station:DISL:CATA:1,2015-07-05T19:30:00Z,30.3085,-88.1395,2.344,19.24,1111122 
DISL,ioos:station:DISL:CATA:1,2015-07-05T20:00:00Z,30.3085,-88.1395,2.345,19.59,1111122 
DISL,ioos:station:DISL:CATA:1,2015-07-05T20:30:00Z,30.3085,-88.1395,2.294,19.38,1111122 
DISL,ioos:station:DISL:CATA:1,2015-07-05T21:00:00Z,30.3085,-88.1395,2.266,19.38,1111122 
DISL,ioos:station:DISL:CATA:1,2015-07-05T21:30:00Z,30.3085,-88.1395,2.294,19.34,1111122 
DISL,ioos:station:DISL:CATA:1,2015-07-05T22:00:00Z,30.3085,-88.1395,2.316,19.13,1111122 
DISL,ioos:station:DISL:CATA:1,2015-07-05T22:30:00Z,30.3085,-88.1395,2.226,18.75,1111122 
DISL,ioos:station:DISL:CATA:1,2015-07-05T23:00:00Z,30.3085,-88.1395,2.202,18.6,1111122 
DISL,ioos:station:DISL:CATA:1,2015-07-05T23:30:00Z,30.3085,-88.1395,2.113,18.47,1111122 
DISL,ioos:station:DISL:CATA:1,2015-07-06T00:00:00Z,30.3085,-88.1395,2.046,18.4,1111122 
DISL,ioos:station:DISL:CATA:1,2015-07-06T00:30:00Z,30.3085,-88.1395,2.002,18.26,1111122 
DISL,ioos:station:DISL:CATA:1,2015-07-06T01:00:00Z,30.3085,-88.1395,1.988,18.24,1111122 
DISL,ioos:station:DISL:CATA:1,2015-07-06T01:30:00Z,30.3085,-88.1395,2.004,18.53,1111122 
DISL,ioos:station:DISL:CATA:1,2015-07-06T02:00:00Z,30.3085,-88.1395,2.012,18.37,1111122 
DISL,ioos:station:DISL:CATA:1,2015-07-06T02:30:00Z,30.3085,-88.1395,2.005,18.45,1111122 
DISL,ioos:station:DISL:CATA:1,2015-07-06T03:00:00Z,30.3085,-88.1395,2.001,18.45,1111122 
DISL,ioos:station:DISL:CATA:1,2015-07-06T03:30:00Z,30.3085,-88.1395,2.029,18.44,1111122 
DISL,ioos:station:DISL:CATA:1,2015-07-06T04:00:00Z,30.3085,-88.1395,2.033,18.44,1111122 
DISL,ioos:station:DISL:CATA:1,2015-07-06T04:30:00Z,30.3085,-88.1395,2.038,18.4,1111122 
DISL,ioos:station:DISL:CATA:1,2015-07-06T05:00:00Z,30.3085,-88.1395,1.951,18.34,1111122 
DISL,ioos:station:DISL:CATA:1,2015-07-06T05:30:00Z,30.3085,-88.1395,1.918,18.27,1111122 
DISL,ioos:station:DISL:CATA:1,2015-07-06T06:00:00Z,30.3085,-88.1395,1.93,18.22,1111122 
DISL,ioos:station:DISL:CATA:1,2015-07-06T06:30:00Z,30.3085,-88.1395,1.967,18.15,1111122 
DISL,ioos:station:DISL:CATA:1,2015-07-06T07:00:00Z,30.3085,-88.1395,2.025,18.81,1111122 
DISL,ioos:station:DISL:CATA:1,2015-07-06T07:30:00Z,30.3085,-88.1395,2.09,18.75,1111122 
DISL,ioos:station:DISL:CATA:1,2015-07-06T08:00:00Z,30.3085,-88.1395,2.11,18.55,1111122 
DISL,ioos:station:DISL:CATA:1,2015-07-06T08:30:00Z,30.3085,-88.1395,2.094,18.18,1111122 
DISL,ioos:station:DISL:CATA:1,2015-07-06T09:00:00Z,30.3085,-88.1395,2.064,18.38,1111122 
DISL,ioos:station:DISL:CATA:1,2015-07-06T09:30:00Z,30.3085,-88.1395,2.103,18.25,1111122 
DISL,ioos:station:DISL:CATA:1,2015-07-06T10:00:00Z,30.3085,-88.1395,2.099,17.92,1111122 
DISL,ioos:station:DISL:CATA:1,2015-07-06T10:30:00Z,30.3085,-88.1395,2.058,17.82,1111122 
DISL,ioos:station:DISL:CATA:1,2015-07-06T11:00:00Z,30.3085,-88.1395,2.063,17.76,1111122 
DISL,ioos:station:DISL:CATA:1,2015-07-06T11:30:00Z,30.3085,-88.1395,2.086,17.92,1111122 
DISL,ioos:station:DISL:CATA:1,2015-07-06T12:00:00Z,30.3085,-88.1395,2.121,17.95,1111122 
DISL,ioos:station:DISL:CATA:1,2015-07-06T12:30:00Z,30.3085,-88.1395,2.165,18.21,1111122 
DISL,ioos:station:DISL:CATA:1,2015-07-06T13:00:00Z,30.3085,-88.1395,2.18,18.4,1111122 
DISL,ioos:station:DISL:CATA:1,2015-07-06T13:30:00Z,30.3085,-88.1395,2.169,18.26,1111122 
DISL,ioos:station:DISL:CATA:1,2015-07-06T14:00:00Z,30.3085,-88.1395,2.18,17.63,1111122 